Find Local Weather

World > North America > United States > Michigan

Harbor Beach, Michigan Regional Weather

Lat: 43.85N, Lon: 82.65W
Wx Zone: MIZ049
Feedback

Harbor Beach, MI Regional Weather

Expires:201902191200;;173352
ASUS43 KDTX 191110
RWRMI 
MICHIGAN HOURLY REGIONAL WEATHER ROUNDUP
NATIONAL WEATHER SERVICE DETROIT/PONTIAC MI
600 AM EST TUE FEB 19 2019

NOTE: "FAIR" INDICATES FEW OR NO CLOUDS BELOW 12,000 FEET WITH NO
SIGNIFICANT WEATHER AND/OR OBSTRUCTION TO VISIBILITY.


MIZ047>049-052>055-059>063-066>070-074>076-081>083-191200-
SOUTHEAST LOWER MICHIGAN
  
CITY           SKY/WX    TMP DP  RH WIND       PRES   REMARKS
ADRIAN         FAIR      13   7  77 N5        30.60R WCI   5          
ALMA           FAIR      -7 -12  80 CALM      30.60R                  
ANN ARBOR      FAIR      10   5  80 NW5       30.58R WCI   2          
BAD AXE        FAIR       2  -1  85 CALM      30.57R                  
CARO           FAIR      -2  -5  87 CALM      30.60R                  
DETROIT CITY   FAIR      11   8  88 CALM      30.60R                  
DETROIT        MOCLDY    11   5  77 CALM      30.60R                  
FLINT          FAIR      -2  -6  83 W3        30.60R                  
GROSSE ILE     FAIR      13  11  89 CALM      30.59R                  
HILLSDALE      FAIR       7   2  80 CALM      30.55R                  
HOWELL         FAIR       5   1  84 CALM      30.57S                  

CITY           SKY/WX    TMP DP  RH WIND       PRES   REMARKS
JACKSON        FAIR       5   1  83 CALM      30.57R                  
LAMBERTVILLE   FAIR      12  10  89 CALM      30.60R                  
LANSING        FAIR       1  -2  87 CALM      30.59R                  
LAPEER         FAIR      -5 -11  77 CALM      30.60R                  
MASON          FAIR       1  -2  86 CALM      30.58F                  
MONROE         FAIR      15  14  96 CALM      30.60R                  
MT. CLEMENS    FAIR       3   1  91 CALM      30.58                   
PONTIAC        MOCLDY     7   2  80 NW3       30.56R                  
PORT HOPE        N/A     11   6  81 W5        30.57R WCI   3          
PORT HURON     FAIR      -6  -9  84 CALM      30.60R                  
TRI CITIES     FAIR       5   1  83 CALM      30.61R                  
MIDLAND        FAIR      -2  -6  83 CALM      30.60S                  
TROY           FAIR      11   5  76 NW3       30.60R                  
SAGINAW HB     FAIR       5   0  78 CALM      30.61R                  
$$

SKY/WX - Weather  TMP - Temperature  DP - Dew Point  RH - Relative Humidity
WIND - Wind Direction/Speed PRES - Barometric Pressure VSB - Visibility
WCI - Wind Chill Index E13G22 Wind - East Wind 13 mph/Gusts of 22 mph